Regional Weather Roundup
Issued by NWS

Home | Current Version | Previous Version | Text Only | Print | Product List | Glossary On
Versions: 1 2 3 4 5 6 7 8 9 10 11 12 13 14 15 16 17 18 19 20 21 22 23 24 25 26 27 28 29 30 31 32 33 34 35 36 37 38 39 40 41 42 43 44 45 46 47 48 49 50
000
ASUS43 KOAX 120410
RWRNE

WEATHER ROUNDUP FOR NEBRASKA
NATIONAL WEATHER SERVICE OMAHA NE
1000 PM CST THU FEB 11 2016

NOTES: SATELLITE DATA IS BEING USED TO AUGMENT CLOUD COVER ABOVE
       12000 FEET.
       "FAIR" INDICATES FEW OR NO CLOUDS BELOW 12,000 FEET WITH NO
       SIGNIFICANT WEATHER AND/OR OBSTRUCTIONS TO VISIBILITY.

  * THESE STATIONS DO NOT REPORT WEATHER SUCH AS RAIN...SNOW OR FOG.

NEZ001>004-019>022-054>056-120500-
NEBRASKA PANHANDLE

CITY           SKY/WX    TMP DP  RH WIND       PRES   REMARKS
SCOTTSBLUFF    CLOUDY    34  27  75 NW8       30.22S WCI  27
ALLIANCE       CLEAR     34  26  72 W10       30.19R WCI  26
CHADRON        CLEAR     30  24  78 CALM      30.21R
KIMBALL        CLOUDY    39  27  60 NW12      30.23F WCI  32
SIDNEY         CLOUDY    36  29  75 W12       30.23R WCI  28
$$

NEZ057>060-069>072-079>082-120500-
SOUTHWEST NEBRASKA

CITY           SKY/WX    TMP DP  RH WIND       PRES   REMARKS
NORTH PLATTE   CLOUDY    39  30  70 N8        30.18R WCI  33
IMPERIAL       CLOUDY    42  29  59 NW13      30.19R
LEXINGTON      CLOUDY    30  27  88 W7        30.18R WCI  24
MCCOOK         CLOUDY    38  31  76 NW13      30.17R WCI  30
OGALLALA       CLOUDY    37  28  70 NW6       30.19R WCI  32
$$

NEZ005>010-023>029-035>040-094-120500-
NORTH CENTRAL NEBRASKA

CITY           SKY/WX    TMP DP  RH WIND       PRES   REMARKS
VALENTINE      CLOUDY    30  27  88 NE7       30.19R WCI  23
AINSWORTH      CLOUDY    30  28  92 N8        30.19R WCI  22
BROKEN BOW     CLEAR     38  31  76 N8        30.17R WCI  32
O`NEILL        CLOUDY    28  26  96 N9        30.21R FOG     WCI  19
ORD            MOCLDY    33  29  85 N9        30.18R WCI  25
THEDFORD       CLEAR     35  32  89 NW6       30.19R WCI  30
$$

NEZ041-046>049-061>064-073>077-083>087-120500-
SOUTH CENTRAL NEBRASKA

CITY           SKY/WX    TMP DP  RH WIND       PRES   REMARKS
GRAND ISLAND   CLEAR     27  24  89 W9        30.16R WCI  18
AURORA         CLEAR     26  25  96 W10       30.13S WCI  16
HASTINGS       CLOUDY    30  26  85 W8        30.15R WCI  22
HEBRON         CLEAR     25  24  96 CALM      30.16S FOG
HOLDREGE       CLOUDY    34  30  88 W6        30.16R WCI  28
KEARNEY *      CLOUDY    34  28  80 NW7       30.17R WCI  28
YORK           CLEAR     25  25 100 CALM      30.15R FOG
$$

NEZ011>018-030>034-042>045-120500-
NORTHEAST NEBRASKA

CITY           SKY/WX    TMP DP  RH WIND       PRES   REMARKS
NORFOLK        CLOUDY    26  23  88 NE5       30.19R FOG     WCI  20
ALBION         CLOUDY    29  26  88 NE6       30.18R WCI  23
BLAIR          CLOUDY    23  20  85 NE5       30.19R WCI  17
COLUMBUS *     CLOUDY    27  18  69 SE3       30.18R
FREMONT        CLOUDY    25  20  84 NE3       30.20R
TEKAMAH        CLOUDY    21  17  84 CALM      30.23R
WAYNE          CLOUDY    20  17  89 NE5       30.21S WCI  13
$$

NEZ050>053-065>068-078-088>093-120500-
SOUTHEAST NEBRASKA

CITY           SKY/WX    TMP DP  RH WIND       PRES   REMARKS
LINCOLN        CLOUDY    30  24  78 NE6       30.20R WCI  24
OMAHA EPPLEY   CLOUDY    25  19  78 CALM      30.21S
BEATRICE       CLEAR     26  24  93 NE6       30.17R WCI  19
FALLS CITY     PTCLDY    29  22  75 N3        30.18R
NEBRASKA CITY  CLOUDY    30  25  80 N5        30.19S WCI  25
PLATTSMOUTH    CLOUDY    29  25  83 CALM      30.19S
$$

NEZ044-045-051>053-067-120500-
OMAHA AREA

CITY           SKY/WX    TMP DP  RH WIND       PRES   REMARKS
OMAHA EPPLEY   CLOUDY    25  19  78 CALM      30.21S
BLAIR          CLOUDY    23  20  85 NE5       30.19R WCI  17
FREMONT        CLOUDY    25  20  84 NE3       30.20R
MILLARD        CLOUDY    28  21  77 CALM      30.20S
OFFUTT AFB     CLOUDY    26  21  80 NE7       30.20R WCI  19
PLATTSMOUTH    CLOUDY    29  25  83 CALM      30.19S
WAHOO          CLOUDY    28  25  87 CALM      30.19S
$$



USA.gov is the U.S. government's official web portal to all federal, state and local government web resources and services.